Tracking 27422 objects as of 30-May-2023
HD Live streaming from Space Station
objects crossing your sky now

STARLINK-4606

Track STARLINK-4606 now!
10-day predictions
STARLINK-4606 is classified as:


NORAD ID: 53632
Int'l Code: 2022-104AW
Perigee: 546.1 km
Apogee: 547.7 km
Inclination: 53.2 °
Period: 95.4 minutes
Semi major axis: 6917 km
RCS: Unknown
Launch date: August 28, 2022
Source: United States (US)
Launch site: AIR FORCE EASTERN TEST RANGE (AFETR)
Your satellite tracking list
Your tracking list is empty




NASA's NSSDC Master Catalog

Two Line Element Set (TLE):
1 53632U 22104AW  23150.27697428 -.00000702  00000-0 -26040-4 0  9991
2 53632  53.2174  97.9807 0001169  83.1712 276.9413 15.08831936 43083
Source of the keplerian elements: AFSPC